SL-4 R/B (52796 NORAD) Tracking and Keplerian Element Data

This shows tracking and keplerian element data for the satellite.

Feedback or suggestion? Click here.




ElementValue
Catalog52796
NameSL-4 R/B
Epoch Orbit39
Epoch Day156.83596375
Epoch Year2022
RAAN31.1955
Inclination51.6354
Eccentricity0.0004427
Argument of Perigee119.0559
Mean Anonmoly241.9986
Mean Motion16.55632723
Decay Rate0.37816646
L11 52796U 22059B 22156.83596375 .37816646 12806-4 17836-3 0 9999
L22 52796 51.6354 31.1955 0004427 119.0559 241.9986 16.55632723 397

Live tracking and technical data element details for SL-4 R/B (NORAD 52796). SL-4 R/B can be tracked NOW for your location showing map with azimuth and elevation plus other details from your city location.

Track the satellite on the map from your city or location and see movement details for azimuth, elevation, latitude, longitude, range, height, and movement on the map or in text.







IsCatalogInMostPopularTable: catalog: 52796, numindb: 7
Update: records affected: 1



GetName: 52796 SL-4 R/B

Hit Count: updated at: Sat, 13 Aug 2022 23:40:01 GMT